User: anonymous   Login
Location: Newark
(43.0000°N, 1.6781°W)
Time: 17:32:10
(UTC+00:00)
Language:

JY1SAT - Orbit

View from above orbital plane
View from above orbital plane
View from above satellite
View from above satellite

Ground track
Ground track

The orbit data is extracted from the following two-line orbital elements,

1 43803U 18099AX  22333.64577508  .00002708  00000-0  23327-3 0  9997
2 43803  97.5999  36.4381 0015320  75.5067 284.7854 14.98070275217791
Epoch (UTC): 29 November 2022 15:29:54
Eccentricity: 0.0015320
inclination: 97.5999°
perigee height: 562 km
apogee height: 583 km
right ascension of ascending node: 36.4381°
argument of perigee: 75.5067°
revolutions per day: 14.98070275
mean anomaly at epoch: 284.7854°
orbit number at epoch: 21779

The dashed part of the orbit path shows where the satellite is in the earth's shadow,  

DLR